Regional Weather Roundup
Issued by NWS Albany, NY

Home | Current Version | Previous Version | Graphics & Text | Print | Product List | Glossary On
Versions: 1 2 3 4 5 6 7 8 9 10 11 12 13 14 15 16 17 18 19 20 21 22 23 24 25 26 27 28 29 30 31 32 33 34 35 36 37 38 39 40 41 42 43 44 45 46 47 48 49 50
000
ASUS41 KALY 181510
RWRALY

NEW YORK STATE HOURLY WEATHER ROUNDUP
NATIONAL WEATHER SERVICE ALBANY NY
1000 AM EST THU DEC 18 2014

NOTE: "FAIR" INDICATES FEW OR NO CLOUDS BELOW 12,000 FEET WITH NO
SIGNIFICANT WEATHER AND/OR NO OBSTRUCTIONS TO VISIBILITY.

NYZ032-033-038>043-046>054-057>066-NYZ062>081-181600-
EAST


CITY           SKY/WX    TMP DP  RH WIND       PRES   REMARKS
ALBANY         CLOUDY    36  26  67 W15G24    29.93R WCI  27
GLENS FALLS    CLOUDY    38  26  62 W6        29.88R WCI  33
POUGHKEEPSIE   PTSUNNY   39  23  52 NW15      29.95R WCI  31
NEWBURGH       PTSUNNY   36  25  64 NW30G41   29.94F WCI  22
MONTGOMERY     CLOUDY    37  22  54 NW13      29.97R WCI  29
WHITE PLAINS   MOSUNNY   38  23  55 W21G30    29.94R WCI  28
ISLIP          MOSUNNY   41  24  51 NW20G29   29.94R
NEW YORK CITY  PTSUNNY   39  24  55 NW18G28   29.99R WCI  30
CENTRAL PARK   PTSUNNY   40  22  48 VRB7G22   30.02R
$$

NYZ005>009-017-018-044>046-055-056-181600-
CENTRAL


CITY           SKY/WX    TMP DP  RH WIND       PRES   REMARKS
FULTON         CLOUDY    33  27  78 W15G25    30.02R WCI  23
SYRACUSE       LGT SNOW  32  29  88 W12       30.03R FOG     WCI  23
ROME           LGT SNOW  31  30  96 W12       30.01R FOG     WCI  22
ELMIRA         CLOUDY    32  26  78 W9G18     30.05S WCI  24
BINGHAMTON     CLOUDY    28  24  85 NW12      29.98S WCI  18
MONTICELLO     CLOUDY    30  23  74 NW15G31   29.96R WCI  19
$$

NYZ026>034-041>043-181600-
NORTH


CITY           SKY/WX    TMP DP  RH WIND       PRES   REMARKS
WATERTOWN      CLOUDY    33  25  72 NW8       30.01R WCI  26
FORT DRUM      NOT AVBL
MASSENA        LGT SNOW  31  28  89 W14       29.95R FOG     WCI  21
SARANAC LAKE   LGT SNOW  28  32 100 W8        29.84R WCI  20
PLATTSBURGH    CLOUDY    35  30  82 W7        29.86R WCI  29
$$

NYZ001>004-010>016-019>021-181600-
WEST


CITY           SKY/WX    TMP DP  RH WIND       PRES   REMARKS
NIAGARA FALLS  CLOUDY    32  26  78 NW14      30.09R WCI  22
BUFFALO        CLOUDY    31  26  82 W9        30.10R WCI  23
DUNKIRK        CLOUDY    32  26  78 W8        30.13R WCI  25
JAMESTOWN      CLOUDY    28  23  80 NW13      30.08R WCI  18
WELLSVILLE     CLOUDY    27  23  85 NW16      30.02R WCI  15
ROCHESTER      CLOUDY    33  27  78 NW14G22   30.06S WCI  23
PENN YAN       CLOUDY    32  25  75 W15G23    30.05R WCI  22
$$

             KEY
       WCI = WIND CHILL INDEX
       VSB = VISIBILITY
       HX  = HEAT INDEX
$$



USA.gov is the U.S. government's official web portal to all federal, state and local government web resources and services.